Mexico City Airport, Mexico

11:17 AM CST on December 13, 2017 (GMT -0600)
Lic Benito Juarez International

Weather History for MMMX - January, 2013

Change the Weather History Date:

Tuesday, January 8, 2013

  Actual Average Record
Temperature  
Mean Temperature 62 °F -  
Max Temperature 71 °F 69 °F 77 °F (2011)
Min Temperature 53 °F 41 °F 30 °F (2006)
Degree Days  
Heating Degree Days 3    
Growing Degree Days 12 (Base 50)    
Moisture  
Dew Point 42 °F    
Average Humidity 51    
Maximum Humidity 67    
Minimum Humidity 28    
Precipitation  
Precipitation 0.65 in - - ()
Sea Level Pressure  
Sea Level Pressure 30.11 in    
Wind  
Wind Speed 7 mph ()    
Max Wind Speed 20 mph    
Max Gust Speed 30 mph    
Visibility 11.9 miles    
Events Rain    
Averages and records for this station are not official NWS values.
T = Trace of Precipitation, MM = Missing Value Source: Averaged Metar Reports

Daily Weather History Graph

Daily Weather History Graph

Search for Another Location

Airport or City:

Trip Planner

Search our weather history database for the weather conditions in past years. The results will help you decide how hot, cold, wet, or windy it might be!

Date:

Astronomy

Jan. 08, 2013 Rise Set
Actual Time 7:12 AM CST 6:14 PM CST
Civil Twilight 6:48 AM CST 6:37 PM CST
Nautical Twilight 6:21 AM CST 7:05 PM CST
Astronomical Twilight 5:54 AM CST 7:32 PM CST
Moon 3:49 AM CST (1/8) 3:16 PM CST (1/8)
Length of Visible Light 11h 49m
Length of Day
11h 01m
Waning Crescent, 13% of the Moon is Illuminated
Jan 8
Waning Crescent
Jan 11
New
Jan 18
First Quarter
Jan 26
Full
Feb 3
Last Quarter

Hourly Weather History & Observations

Time (CST) Temp. Dew Point Humidity Pressure Visibility Wind Dir Wind Speed Gust Speed Precip Events Conditions
12:55 AM 57.2 °F 42.8 °F 59% 30.25 in 12.0 mi ESE 4.6 mph - N/A   Scattered Clouds
1:54 AM 55.4 °F 42.8 °F 63% 30.23 in 14.0 mi SE 11.5 mph - N/A   Clear
2:45 AM 55.4 °F 42.8 °F 63% 29.75 in 14.0 mi SSE 5.8 mph - N/A   Scattered Clouds
3:47 AM 55.4 °F 41.0 °F 58% 30.21 in 14.0 mi Calm Calm - N/A   Scattered Clouds
4:44 AM 53.6 °F 42.8 °F 67% 30.21 in 14.0 mi Calm Calm - N/A   Scattered Clouds
5:45 AM 53.6 °F 41.0 °F 62% 29.66 in 14.0 mi Calm Calm - N/A   Scattered Clouds
6:25 AM 53.6 °F 42.8 °F 67% 30.22 in 12.0 mi Calm Calm - N/A   Mostly Cloudy
6:51 AM 53.6 °F 42.8 °F 67% 30.23 in 12.0 mi Calm Calm - N/A   Mostly Cloudy
7:24 AM 53.6 °F 42.8 °F 67% 30.23 in 10.0 mi Calm Calm - N/A   Overcast
7:44 AM 55.4 °F 42.8 °F 63% 30.25 in 10.0 mi SE 4.6 mph - N/A   Overcast
8:21 AM 57.2 °F 42.8 °F 59% 30.26 in 10.0 mi Calm Calm - N/A   Overcast
8:49 AM 59.0 °F 42.8 °F 55% 29.83 in 10.0 mi SSE 4.6 mph - N/A   Overcast
9:45 AM 62.6 °F 42.8 °F 48% 30.29 in 10.0 mi SSE 6.9 mph - N/A   Overcast
10:34 AM 66.2 °F 42.8 °F 43% 30.27 in 10.0 mi ESE 11.5 mph - N/A   Mostly Cloudy
10:43 AM 66.2 °F 42.8 °F 43% 30.27 in 10.0 mi SSE 13.8 mph - N/A   Mostly Cloudy
11:42 AM 68.0 °F 42.8 °F 40% 29.76 in 10.0 mi SE 10.4 mph - N/A   Mostly Cloudy
12:43 PM 71.6 °F 37.4 °F 29% 30.20 in 10.0 mi South 17.3 mph - N/A   Mostly Cloudy
12:45 PM 71.6 °F 37.4 °F 29% 30.20 in 10.0 mi South 17.3 mph - N/A   Mostly Cloudy
1:34 PM 71.6 °F 37.4 °F 29% 3.02 in 12.0 mi South 17.3 mph 29.9 mph N/A   Mostly Cloudy
1:49 PM 71.6 °F 37.4 °F 29% 30.20 in 12.0 mi SSW 13.8 mph 26.5 mph N/A   Mostly Cloudy
2:45 PM 69.8 °F 37.4 °F 31% 29.68 in 12.0 mi South 17.3 mph 28.8 mph N/A   Mostly Cloudy
3:48 PM 69.8 °F 35.6 °F 28% 30.16 in 12.0 mi SSW 16.1 mph 27.6 mph N/A   Mostly Cloudy
4:47 PM 68.0 °F 35.6 °F 30% 30.16 in 12.0 mi South 13.8 mph 28.8 mph N/A   Mostly Cloudy
4:53 PM 68.0 °F 35.6 °F 30% 30.16 in 12.0 mi South 13.8 mph 28.8 mph N/A   Mostly Cloudy
5:50 PM 66.2 °F 39.2 °F 37% 29.73 in 12.0 mi SSW 17.3 mph 28.8 mph N/A   Mostly Cloudy
6:52 PM 64.4 °F 41.0 °F 42% 30.20 in 12.0 mi South 18.4 mph - N/A   Overcast
7:36 PM 62.6 °F 44.6 °F 52% 30.23 in 8.0 mi South 17.3 mph 28.8 mph N/A Rain Light Rain
7:43 PM 60.8 °F 46.4 °F 59% 30.24 in 8.0 mi SSW 16.1 mph 27.6 mph N/A Rain Light Rain
7:46 PM 59.0 °F 48.2 °F 67% 30.24 in 8.0 mi SSW 19.6 mph - N/A Rain Light Rain
8:12 PM 57.2 °F 46.4 °F 67% 30.24 in 15.0 mi South 9.2 mph - N/A   Mostly Cloudy
8:43 PM 60.8 °F 46.4 °F 59% 30.24 in 15.0 mi South 4.6 mph - N/A   Mostly Cloudy
8:51 PM 60.8 °F 46.4 °F 59% 29.78 in 15.0 mi Calm Calm - N/A   Scattered Clouds
9:50 PM 60.8 °F 46.4 °F 59% 30.24 in 15.0 mi SW 9.2 mph - N/A   Scattered Clouds
10:51 PM 60.8 °F 46.4 °F 59% 30.25 in 15.0 mi SSW 6.9 mph - N/A   Scattered Clouds
11:50 PM 60.8 °F 46.4 °F 59% 29.74 in 15.0 mi South 12.7 mph - N/A   Scattered Clouds